STARLINK-32295 (62147 NORAD) Tracking and Keplerian Element Data

This shows tracking and keplerian element data for the satellite.

Feedback or suggestion? Click here.




ElementValue
Catalog62147
NameSTARLINK-32295
Epoch Orbit1101
Epoch Day33.04061624
Epoch Year2025
RAAN267.8731
Inclination43.0003
Eccentricity0.000183
Argument of Perigee273.0833
Mean Anonmoly86.9811
Mean Motion15.32103236
Decay Rate8.94E-06
L11 62147U 24224J 25033.04061624 .00000894 00000+0 36959-4 0 9996
L22 62147 43.0003 267.8731 0001830 273.0833 86.9811 15.32103236 11016



Live tracking and technical data element details for STARLINK-32295 (NORAD 62147). STARLINK-32295 can be tracked NOW for your location showing map with azimuth and elevation plus other details from your city location.







IsCatalogInMostPopularTable: catalog: 62147, numindb: 11
Update: records affected: 1



GetName: 62147 STARLINK-32295

Hit Count: updated at: Sun, 18 May 2025 23:25:47 GMT